Location: Treviso
(45.6669°N, 12.2430°E)
Time: 21:01:11
(UTC+01:00)

ISS - Pass Details

Date: 28 November 2023
Orbit: 415 x 417 km, 51.6° (Epoch: 06 December)

Event Time Altitude Azimuth Distance (km) Brightness Sun altitude
Rises 17:27:25 0° 289° (WNW) 2,360 0.9 -9.8°
Reaches altitude 10° 17:29:42 10° 301° (WNW) 1,497 -0.4 -10.2°
Maximum altitude 17:32:40 28° 3° (N) 814 -2.5 -10.7°
Enters shadow 17:34:38 17° 54° (NE) 1,164 -2.1 -11.0°
